{"data":{"norad_id":25994,"epoch":"2026-09-19T22:39:02.229120Z","epoch_age_seconds":59257,"freshness":"FRESH","line1":"1 25994U 99068A   26262.94377580  .00000185  00000+0  46496-4 0  9998","line2":"2 25994  97.9362 308.6897 0001026 316.6543 166.1890 14.61162482423448","mean_motion":14.61162482,"eccentricity":0.0001026,"inclination_deg":97.9362,"raan_deg":308.6897,"arg_perigee_deg":316.6543,"mean_anomaly_deg":166.189,"bstar":4.6496e-5,"rev_number":42344,"period_min":98.551668123107,"perigee_km":688.69779701999,"apogee_km":690.14806031735,"semimajor_km":7067.5599286687,"source":"CELESTRAK","updated_at":"2026-09-20T09:00:47.140449Z"}}